Lexington, NE

11:28 AM CDT on June 25, 2018 (GMT -0500)
Kelly

Weather History for KLXN - September, 2017

Change the Weather History Date:

Thursday, September 14, 2017

  Actual Average Record
Temperature  
Mean Temperature 76 °F -  
Max Temperature 95 °F 76 °F 95 °F (2017)
Min Temperature 57 °F 49 °F 38 °F (2014)
Cooling Degree Days 11    
Growing Degree Days 26 (Base 50)    
Moisture  
Dew Point 56 °F    
Average Humidity 55    
Maximum Humidity 90    
Minimum Humidity 22    
Precipitation  
Precipitation 0.00 in - - ()
Sea Level Pressure  
Sea Level Pressure 29.71 in    
Wind  
Wind Speed 5 mph (South)    
Max Wind Speed 12 mph    
Max Gust Speed -    
Visibility 10 miles    
Events Thunderstorm    
Averages and records for this station are not official NWS values.
T = Trace of Precipitation, MM = Missing Value Source: NWS Daily Summary

Daily Weather History Graph

Daily Weather History Graph

Search for Another Location

Airport or City:

Astronomy

Sep. 14, 2017 Rise Set
Actual Time 7:19 AM CDT 7:49 PM CDT
Civil Twilight 6:51 AM CDT 8:16 PM CDT
Nautical Twilight 6:19 AM CDT 8:49 PM CDT
Astronomical Twilight 5:45 AM CDT 9:22 PM CDT
Moon 1:15 AM CDT (9/14) 4:09 PM CDT (9/14)
Length of Visible Light 13h 25m
Length of Day
12h 30m
Waning Crescent, 34% of the Moon is Illuminated
Sep 14
Waning Crescent
Sep 20
New
Sep 27
First Quarter
Oct 5
Full
Oct 12
Last Quarter

Hourly Weather History & Observations

Time (CDT) Temp. Heat Index Dew Point Humidity Pressure Visibility Wind Dir Wind Speed Gust Speed Precip Events Conditions
12:15 AM 64.4 °F - 56.5 °F 75% 29.70 in 10.0 mi Calm Calm - N/A   Clear
12:35 AM 64.9 °F - 55.9 °F 73% 29.70 in 10.0 mi SE 3.5 mph - N/A   Clear
12:55 AM 64.9 °F - 55.9 °F 73% 29.71 in 10.0 mi ESE 4.6 mph - N/A   Clear
1:15 AM 63.3 °F - 55.9 °F 77% 29.71 in 10.0 mi SSE 6.9 mph - N/A   Clear
1:35 AM 63.5 °F - 55.8 °F 76% 29.71 in 10.0 mi SSE 8.1 mph - N/A   Clear
1:55 AM 64.0 °F - 55.6 °F 74% 29.71 in 10.0 mi SE 8.1 mph - N/A   Clear
2:15 AM 64.6 °F - 55.0 °F 71% 29.71 in 10.0 mi SE 8.1 mph - N/A   Clear
2:35 AM 63.3 °F - 55.0 °F 74% 29.71 in 10.0 mi SSE 5.8 mph - N/A   Clear
2:55 AM 61.5 °F - 54.7 °F 78% 29.71 in 10.0 mi South 5.8 mph - N/A   Clear
3:15 AM 62.8 °F - 54.7 °F 75% 29.71 in 10.0 mi South 8.1 mph - N/A   Clear
3:35 AM 63.5 °F - 54.5 °F 72% 29.71 in 10.0 mi South 4.6 mph - N/A   Clear
3:55 AM 60.1 °F - 54.1 °F 81% 29.71 in 10.0 mi SSW 5.8 mph - N/A   Clear
4:15 AM 61.3 °F - 53.8 °F 76% 29.71 in 10.0 mi South 4.6 mph - N/A   Clear
4:35 AM 60.3 °F - 53.4 °F 78% 29.71 in 10.0 mi South 4.6 mph - N/A   Clear
4:55 AM 59.5 °F - 53.1 °F 79% 29.71 in 10.0 mi South 4.6 mph - N/A   Clear
5:15 AM 61.2 °F - 53.6 °F 76% 29.71 in 10.0 mi SW 3.5 mph - N/A   Clear
5:35 AM 60.8 °F - 52.9 °F 75% 29.70 in 10.0 mi South 4.6 mph - N/A   Clear
5:55 AM 60.6 °F - 52.9 °F 76% 29.70 in 10.0 mi SSW 4.6 mph - N/A   Clear
6:15 AM 58.6 °F - 52.7 °F 81% 29.70 in 10.0 mi Calm Calm - N/A   Clear
6:35 AM 58.3 °F - 52.3 °F 81% 29.71 in 10.0 mi South 5.8 mph - N/A   Clear
6:55 AM 59.2 °F - 52.9 °F 80% 29.71 in 10.0 mi Calm Calm - N/A   Clear
7:15 AM 58.3 °F - 52.3 °F 81% 29.71 in 10.0 mi Calm Calm - N/A   Clear
7:35 AM 57.6 °F - 52.7 °F 84% 29.73 in 10.0 mi West 4.6 mph - N/A   Clear
7:55 AM 57.2 °F - 52.7 °F 85% 29.73 in 10.0 mi Calm Calm - N/A   Clear
8:15 AM 57.0 °F - 54.1 °F 90% 29.74 in 10.0 mi Calm Calm - N/A   Clear
8:35 AM 61.0 °F - 56.5 °F 85% 29.74 in 10.0 mi Calm Calm - N/A   Clear
8:55 AM 66.0 °F - 57.2 °F 73% 29.74 in 10.0 mi SW 3.5 mph - N/A   Clear
9:15 AM 69.1 °F - 58.5 °F 69% 29.74 in 10.0 mi SW 3.5 mph - N/A   Clear
9:35 AM 71.2 °F - 57.6 °F 62% 29.74 in 1.0 mi Calm Calm - N/A   Haze
9:55 AM 77.2 °F - 56.5 °F 49% 29.74 in 10.0 mi SW 4.6 mph - N/A   Clear
10:15 AM 75.9 °F - 57.7 °F 53% 29.74 in 10.0 mi Calm Calm - N/A   Clear
10:35 AM 75.9 °F - 57.6 °F 53% 29.75 in 10.0 mi SSW 3.5 mph - N/A   Clear
10:55 AM - - - N/A% - - North - - N/A   Unknown
11:15 AM 80.2 °F 80.5 °F 57.0 °F 45% 29.74 in - South 3.5 mph - N/A Thunderstorm Thunderstorm
11:35 AM 80.6 °F 80.6 °F 56.1 °F 43% 29.75 in 10.0 mi SSW 4.6 mph - N/A   Clear
11:55 AM 81.9 °F 81.9 °F 58.3 °F 45% 29.75 in 10.0 mi South 8.1 mph - N/A   Clear
12:15 PM 84.7 °F 83.6 °F 56.1 °F 37% 29.74 in 10.0 mi South 8.1 mph - N/A   Clear
12:35 PM 87.1 °F 85.5 °F 55.6 °F 34% 29.74 in 10.0 mi South 9.2 mph - N/A   Clear
12:55 PM 88.7 °F 86.5 °F 53.6 °F 30% 29.74 in 10.0 mi South 9.2 mph - N/A   Clear
1:15 PM 89.1 °F 87.1 °F 54.9 °F 31% 29.74 in 10.0 mi South 10.4 mph - N/A   Clear
1:35 PM 90.0 °F 87.9 °F 54.9 °F 30% 29.73 in 10.0 mi South 8.1 mph - N/A   Clear
1:55 PM 91.8 °F 90.0 °F 56.1 °F 30% 29.73 in 10.0 mi South 9.2 mph - N/A   Clear
2:15 PM 91.9 °F 89.8 °F 54.3 °F 28% 29.73 in 10.0 mi South 9.2 mph - N/A   Clear
2:35 PM 90.5 °F 88.1 °F 53.4 °F 28% 29.72 in 10.0 mi SSW 8.1 mph - N/A   Clear
2:55 PM 91.6 °F 89.8 °F 56.5 °F 30% 29.71 in 10.0 mi South 9.2 mph - N/A   Clear
3:15 PM 94.6 °F 92.3 °F 54.0 °F 25% 29.71 in 10.0 mi SSW 8.1 mph - N/A   Clear
3:35 PM 93.7 °F - 52.2 °F 24% 29.71 in 10.0 mi SSW 9.2 mph - N/A   Clear
3:55 PM 95.4 °F - 51.8 °F 23% 29.71 in 10.0 mi South 10.4 mph - N/A   Clear
4:15 PM 95.9 °F - 50.7 °F 22% 29.70 in 10.0 mi South 11.5 mph - N/A   Clear
4:35 PM 93.2 °F - 50.5 °F 23% 29.70 in 10.0 mi SSW 9.2 mph - N/A   Clear
4:55 PM 90.7 °F 89.0 °F 56.3 °F 31% 29.70 in 7.0 mi South 4.6 mph - N/A   Clear
5:15 PM 94.5 °F 92.1 °F 53.8 °F 25% 29.70 in 4.0 mi SSE 6.9 mph - N/A   Haze
5:35 PM 95.2 °F - 51.3 °F 22% 29.69 in 5.0 mi South 9.2 mph - N/A   Haze
5:55 PM 94.5 °F 92.3 °F 54.3 °F 26% 29.69 in 10.0 mi SSE 10.4 mph - N/A   Clear
6:15 PM 93.4 °F 91.3 °F 54.5 °F 27% 29.69 in 10.0 mi SSE 8.1 mph - N/A   Clear
6:35 PM 92.3 °F 90.5 °F 55.4 °F 29% 29.69 in 10.0 mi SSE 8.1 mph - N/A   Clear
6:55 PM 90.1 °F 88.3 °F 55.9 °F 31% 29.69 in 10.0 mi SSE 6.9 mph - N/A   Clear
7:15 PM 88.5 °F 86.9 °F 55.9 °F 33% 29.69 in 10.0 mi ESE 5.8 mph - N/A   Clear
7:35 PM 85.5 °F 84.8 °F 58.3 °F 40% 29.69 in 10.0 mi SE 5.8 mph - N/A   Clear
7:55 PM 80.2 °F 81.0 °F 60.1 °F 50% 29.69 in 10.0 mi ESE 4.6 mph - N/A   Clear
8:15 PM 80.6 °F 81.4 °F 60.3 °F 50% 29.69 in 10.0 mi ESE 6.9 mph - N/A   Clear
8:35 PM 80.2 °F 81.0 °F 60.3 °F 50% 29.70 in 10.0 mi ESE 4.6 mph - N/A   Clear
8:55 PM 74.1 °F - 63.0 °F 68% 29.70 in 10.0 mi ENE 5.8 mph - N/A   Clear
9:15 PM 73.2 °F - 62.6 °F 69% 29.71 in 10.0 mi ESE 3.5 mph - N/A   Clear
9:35 PM 74.7 °F - 61.9 °F 64% 29.71 in 10.0 mi East 4.6 mph - N/A   Clear
9:55 PM 72.5 °F - 61.2 °F 67% 29.71 in 10.0 mi ESE 4.6 mph - N/A   Clear
10:15 PM 76.3 °F - 61.0 °F 59% 29.71 in 10.0 mi ESE 6.9 mph - N/A   Mostly Cloudy
10:35 PM 76.5 °F - 60.3 °F 57% 29.70 in 10.0 mi ESE 8.1 mph - N/A   Scattered Clouds
10:55 PM 77.0 °F - 58.5 °F 53% 29.70 in 10.0 mi SE 9.2 mph - N/A   Mostly Cloudy
11:15 PM 77.0 °F - 56.7 °F 49% 29.70 in 10.0 mi SSE 9.2 mph - N/A   Scattered Clouds
11:35 PM 76.6 °F - 56.3 °F 49% 29.70 in 10.0 mi SSE 8.1 mph - N/A   Scattered Clouds
11:55 PM 75.9 °F - 56.5 °F 51% 29.71 in 10.0 mi SE 6.9 mph - N/A   Clear